• In Deutschland
  • Länderverzeichnis
  • Für 7 Tage
  • Wassertemperatur
  • Satellitenkarten
  • Wetterkarte
  • Widgets
  • user-avatar
    Anmelden

    Stündliche Wetter Baalbek

    Heute, 19 Januar, Freitag

    Zeit Temperatur Niederschläge Wind Luftdruck Luftfeuchtigkeit
    00:00 +1°C° 2,4 mm 9 m/S 646 mmHg 86%
    01:00 +1°C° 2,4 mm 9 m/S 646 mmHg 85%
    02:00 0°C° 0 mm 10 m/S 645 mmHg 82%
    03:00 -2°C° 1,3 mm 10 m/S 646 mmHg 82%
    04:00 -1°C° 1,3 mm 9 m/S 646 mmHg 82%
    05:00 -1°C° 1,3 mm 8 m/S 646 mmHg 82%
    06:00 -1°C° 0,3 mm 8 m/S 647 mmHg 81%
    07:00 -1°C° 0,3 mm 8 m/S 647 mmHg 79%
    08:00 -1°C° 0 mm 7 m/S 648 mmHg 78%
    09:00 -1°C° 0,1 mm 8 m/S 649 mmHg 76%
    10:00 0°C° 0,1 mm 9 m/S 649 mmHg 74%
    11:00 0°C° 0,1 mm 10 m/S 650 mmHg 72%
    12:00 0°C° 0 mm 9 m/S 651 mmHg 70%
    13:00 0°C° 0 mm 8 m/S 652 mmHg 69%
    14:00 0°C° 0 mm 8 m/S 652 mmHg 68%
    15:00 -1°C° 0 mm 6 m/S 653 mmHg 70%
    16:00 0°C° 0 mm 5 m/S 653 mmHg 71%
    17:00 -1°C° 0 mm 4 m/S 654 mmHg 72%
    18:00 -2°C° 0 mm 4 m/S 655 mmHg 73%
    19:00 -1°C° 0 mm 3 m/S 655 mmHg 73%
    20:00 -1°C° 0 mm 3 m/S 656 mmHg 73%
    21:00 -1°C° 0 mm 3 m/S 657 mmHg 72%
    22:00 -1°C° 0 mm 3 m/S 657 mmHg 71%
    23:00 -1°C° 0 mm 2 m/S 658 mmHg 70%

    Morgen, 20 Januar, Samstag

    Zeit Temperatur Niederschläge Wind Luftdruck Luftfeuchtigkeit
    00:00 -1°C° 0 mm 2 m/S 658 mmHg 69%
    01:00 -1°C° 0 mm 2 m/S 659 mmHg 68%
    02:00 -1°C° 0 mm 2 m/S 659 mmHg 67%
    03:00 +1°C° 0 mm 2 m/S 659 mmHg 65%
    04:00 +1°C° 0 mm 2 m/S 660 mmHg 64%
    05:00 +1°C° 0 mm 2 m/S 660 mmHg 62%
    06:00 +1°C° 0 mm 2 m/S 660 mmHg 60%
    07:00 +3°C° 0 mm 1 m/S 661 mmHg 58%
    08:00 +4°C° 0 mm 1 m/S 661 mmHg 56%
    09:00 +5°C° 0 mm 1 m/S 662 mmHg 59%
    10:00 +7°C° 0 mm 1 m/S 662 mmHg 62%
    11:00 +7°C° 0 mm 2 m/S 663 mmHg 65%
    12:00 +7°C° 0 mm 2 m/S 663 mmHg 64%
    13:00 +7°C° 0 mm 2 m/S 663 mmHg 63%
    14:00 +8°C° 0 mm 2 m/S 662 mmHg 62%
    15:00 +7°C° 0 mm 2 m/S 662 mmHg 62%
    16:00 +7°C° 0 mm 1 m/S 662 mmHg 61%
    17:00 +5°C° 0 mm 1 m/S 662 mmHg 61%
    18:00 +5°C° 0 mm 1 m/S 662 mmHg 61%
    19:00 +5°C° 0 mm 1 m/S 662 mmHg 61%
    20:00 +5°C° 0 mm 1 m/S 662 mmHg 60%
    21:00 +4°C° 0 mm 1 m/S 662 mmHg 59%
    22:00 +4°C° 0 mm 1 m/S 662 mmHg 57%
    23:00 +4°C° 0 mm 1 m/S 662 mmHg 56%

    übermorgen, 21 Januar, Sonntag

    Zeit Temperatur Niederschläge Wind Luftdruck Luftfeuchtigkeit
    00:00 +4°C° 0 mm 1 m/S 662 mmHg 56%
    01:00 +4°C° 0 mm 1 m/S 662 mmHg 56%
    02:00 +4°C° 0 mm 1 m/S 662 mmHg 56%
    03:00 +4°C° 0 mm 1 m/S 662 mmHg 55%
    04:00 +4°C° 0 mm 1 m/S 661 mmHg 55%
    05:00 +4°C° 0 mm 1 m/S 661 mmHg 54%
    06:00 +5°C° 0 mm 1 m/S 661 mmHg 55%
    07:00 +5°C° 0 mm 2 m/S 662 mmHg 55%
    08:00 +5°C° 0 mm 2 m/S 662 mmHg 55%
    09:00 +6°C° 0 mm 2 m/S 662 mmHg 57%
    10:00 +8°C° 0 mm 2 m/S 662 mmHg 59%
    11:00 +9°C° 0 mm 2 m/S 662 mmHg 61%
    12:00 +9°C° 0 mm 2 m/S 661 mmHg 59%
    13:00 +9°C° 0 mm 2 m/S 661 mmHg 57%
    14:00 +10°C° 0 mm 2 m/S 660 mmHg 55%
    15:00 +9°C° 0 mm 2 m/S 660 mmHg 55%
    16:00 +8°C° 0 mm 2 m/S 659 mmHg 54%
    17:00 +7°C° 0 mm 2 m/S 659 mmHg 53%
    18:00 +7°C° 0 mm 2 m/S 659 mmHg 52%
    19:00 +6°C° 0 mm 2 m/S 658 mmHg 51%
    20:00 +6°C° 0 mm 2 m/S 658 mmHg 49%
    21:00 +6°C° 0 mm 2 m/S 658 mmHg 49%
    22:00 +5°C° 0 mm 3 m/S 657 mmHg 50%
    23:00 +5°C° 0 mm 3 m/S 657 mmHg 50%

    22 Januar, Montag

    Zeit Temperatur Niederschläge Wind Luftdruck Luftfeuchtigkeit
    00:00 +5°C° 0 mm 3 m/S 656 mmHg 49%
    01:00 +4°C° 0 mm 3 m/S 656 mmHg 49%
    02:00 +5°C° 0 mm 2 m/S 655 mmHg 48%
    03:00 +5°C° 0 mm 2 m/S 655 mmHg 48%
    04:00 +5°C° 0 mm 2 m/S 654 mmHg 48%
    05:00 +4°C° 0 mm 2 m/S 654 mmHg 47%
    06:00 +5°C° 0 mm 2 m/S 654 mmHg 47%
    07:00 +4°C° 0 mm 3 m/S 654 mmHg 47%
    08:00 +5°C° 0 mm 3 m/S 655 mmHg 48%
    09:00 +6°C° 0 mm 4 m/S 655 mmHg 51%
    10:00 +7°C° 0 mm 5 m/S 655 mmHg 54%
    11:00 +8°C° 0 mm 6 m/S 655 mmHg 57%
    12:00 +8°C° 0 mm 7 m/S 654 mmHg 59%
    13:00 +8°C° 0 mm 7 m/S 654 mmHg 62%
    14:00 +8°C° 0 mm 7 m/S 653 mmHg 64%
    15:00 +7°C° 0,2 mm 6 m/S 653 mmHg 69%
    16:00 +5°C° 0,2 mm 6 m/S 653 mmHg 74%
    17:00 +6°C° 0,2 mm 5 m/S 653 mmHg 79%
    18:00 +5°C° 0,2 mm 5 m/S 654 mmHg 81%
    19:00 +5°C° 0,2 mm 5 m/S 654 mmHg 83%
    20:00 +5°C° 0,2 mm 5 m/S 654 mmHg 86%
    21:00 +5°C° 0,2 mm 5 m/S 654 mmHg 87%
    22:00 +5°C° 0,2 mm 5 m/S 654 mmHg 87%
    23:00 +5°C° 0,2 mm 5 m/S 654 mmHg 88%

    23 Januar, Dienstag

    Zeit Temperatur Niederschläge Wind Luftdruck Luftfeuchtigkeit
    00:00 +5°C° 0,2 mm 5 m/S 654 mmHg 88%
    01:00 +5°C° 0,2 mm 5 m/S 653 mmHg 89%
    02:00 +3°C° 0,2 mm 5 m/S 653 mmHg 89%
    03:00 +3°C° 0,3 mm 5 m/S 653 mmHg 89%
    04:00 +3°C° 0,3 mm 5 m/S 653 mmHg 89%
    05:00 +3°C° 0,3 mm 5 m/S 652 mmHg 89%
    06:00 +3°C° 0,2 mm 6 m/S 652 mmHg 88%
    07:00 +3°C° 0,2 mm 6 m/S 653 mmHg 87%
    08:00 +3°C° 0,2 mm 7 m/S 653 mmHg 85%
    09:00 +2°C° 0,2 mm 8 m/S 653 mmHg 81%
    10:00 +2°C° 0,2 mm 9 m/S 653 mmHg 77%
    11:00 +2°C° 0,2 mm 10 m/S 653 mmHg 73%
    12:00 +2°C° 0,4 mm 10 m/S 653 mmHg 73%
    13:00 +2°C° 0,4 mm 10 m/S 653 mmHg 73%
    14:00 +2°C° 0,4 mm 10 m/S 653 mmHg 74%
    15:00 +2°C° 0,2 mm 9 m/S 654 mmHg 74%
    16:00 +1°C° 0,2 mm 8 m/S 654 mmHg 75%
    17:00 0°C° 0,2 mm 7 m/S 654 mmHg 75%
    18:00 0°C° 0 mm 7 m/S 655 mmHg 76%
    19:00 -1°C° 0 mm 6 m/S 655 mmHg 76%
    20:00 0°C° 0 mm 5 m/S 656 mmHg 77%
    21:00 -1°C° 0 mm 5 m/S 656 mmHg 76%
    22:00 -1°C° 0 mm 4 m/S 656 mmHg 76%
    23:00 -2°C° 0 mm 4 m/S 656 mmHg 75%

    24 Januar, Mittwoch

    Zeit Temperatur Niederschläge Wind Luftdruck Luftfeuchtigkeit
    00:00 -1°C° 0 mm 3 m/S 656 mmHg 75%
    01:00 -1°C° 0 mm 3 m/S 656 mmHg 76%
    02:00 -1°C° 0 mm 3 m/S 657 mmHg 76%
    03:00 -1°C° 0 mm 2 m/S 657 mmHg 76%
    04:00 -1°C° 0 mm 2 m/S 657 mmHg 77%
    05:00 -1°C° 0 mm 2 m/S 657 mmHg 78%
    06:00 +1°C° 0 mm 2 m/S 658 mmHg 76%
    07:00 +1°C° 0 mm 2 m/S 658 mmHg 74%
    08:00 +3°C° 0 mm 1 m/S 659 mmHg 72%
    09:00 +3°C° 0 mm 2 m/S 659 mmHg 68%
    10:00 +4°C° 0 mm 2 m/S 660 mmHg 64%
    11:00 +5°C° 0 mm 2 m/S 660 mmHg 59%
    12:00 +5°C° 0 mm 2 m/S 660 mmHg 58%
    13:00 +6°C° 0 mm 2 m/S 660 mmHg 56%
    14:00 +6°C° 0 mm 2 m/S 659 mmHg 55%
    15:00 +5°C° 0 mm 2 m/S 659 mmHg 58%
    16:00 +5°C° 0 mm 1 m/S 659 mmHg 61%
    17:00 +5°C° 0 mm 1 m/S 659 mmHg 64%
    18:00 +4°C° 0 mm 1 m/S 659 mmHg 66%
    19:00 +4°C° 0 mm 1 m/S 659 mmHg 68%
    20:00 +3°C° 0 mm 1 m/S 659 mmHg 69%
    21:00 +3°C° 0 mm 1 m/S 659 mmHg 70%
    22:00 +3°C° 0 mm 1 m/S 659 mmHg 71%
    23:00 +3°C° 0 mm 1 m/S 659 mmHg 72%
    Mehr zeigen